Starlink 31292

operational
NORAD ID: 59081 Int'l Des: 2024-041 Owner: SPXS Country: US Constellation: starlink
LEOCIRCULAR

Über Starlink 31292

Beschreibung wird geladen...

Live-Position

3D-Globus wird geladen...

Nächste Überflüge

Höhenverlauf

Altitude vs Time

uPlot chart will show altitude changes over time

Zweizeiliger Elementsatz

1 59081U 24041H 25303.49924224 -.00000376 00000-0 -41700-5 0 9998
2 59081 43.0006 325.6900 0000131 264.3077 95.7759 15.27571237 94350
Epoch: 30. Okt. 2025 • Age: 32 hours

Aktueller Status

Höhe 492.9 km
Geschwindigkeit 7.62 km/s
Subsatellitenpunkt -34.80°S, 160.45°W
Startdatum 29. Feb. 2024
Alter 1.6 years
Typ internet

Technische Details

Klassifizierung Payload
Masse 730.00 kg
Trockenmasse 700.00 kg
Gesamtmasse 730.00 kg
Länge 0.30 m
Durchmesser 4.10 m
Spannweite 29.00 m
Form Box + pan
Hersteller SPXS
Bus-Typ Starlink V2M
Phasenstatus In Orbit
Besitzer/Staat SPXS/US

Große Konstellationen

Loading constellations...